Regional Weather Roundup
Issued by NWS

Home | Current Version | Previous Version | Text Only | Print | Product List | Glossary On
Versions: 1 2 3 4 5 6 7 8 9 10 11 12 13 14 15 16 17 18 19 20 21 22 23 24 25 26 27 28 29 30 31 32 33 34 35 36 37 38 39 40 41 42 43 44 45 46 47 48 49 50
000
ASUS42 KFFC 281710
RWRGA
WEATHER ROUNDUP FOR GEORGIA
NATIONAL WEATHER SERVICE PEACHTREE CITY GA
100 PM EDT TUE JUL 28 2015

NOTE: "FAIR" INDICATES FEW OR NO CLOUDS BELOW 12,000 FEET WITH NO
SIGNIFICANT WEATHER AND/OR OBSTRUCTIONS TO VISIBILITY.

* = USE WITH CAUTION. THE STATIONS MARKED WITH AN ASTERISK MAY NOT
REPORT WEATHER SUCH AS PRECIPITATION, FOG, OR THUNDER AND ARE NOT
QUALITY CONTROLLED BY NWS.

THE REMARK "TC" DENOTES TEMPERATURE READING IN DEGREES CELSIUS.

GAZ001>058-281800-
NORTH GEORGIA

CITY           SKY/WX    TMP DP  RH WIND       PRES   REMARKS
ATLANTA        MOSUNNY   91  73  55 W3        30.03S HX  99
ATHENS         SUNNY     93  69  45 CALM      30.02F HX  98
CHAMBLEE       PTSUNNY   92  71  50 VRB3      30.03S HX  98
PEACHTREE CITY MOSUNNY   92  72  51 W7        30.03F HX  99
ROME           MOSUNNY   91  73  55 NW6       30.01F HX  99
WEST ATLANTA   SUNNY     91  72  53 W6        30.02F HX  98
GAINESVILLE    SUNNY     91  68  46 N8        30.07S HX  95
CARTERSVILLE   SUNNY     92  73  53 VRB5      30.03S HX 100


CITY           SKY/WX    TMP DP  RH WIND       PRES   REMARKS
DALTON*        SUNNY     88  73  62 CALM      30.03S HX  96
LAWRENCEVILLE* PTSUNNY   91  68  46 W6        30.02  HX  95
MARIETTA       PTSUNNY   92  72  52 VRB3      30.04S HX  99
KENNESAW*      MOSUNNY   91  72  52 NW6       30.05S HX  98
BLAIRSVILLE*     N/A     86  37  17 NW6       30.09S
$$

GAZ059>098-102>109-281800-
CENTRAL GEORGIA

CITY           SKY/WX    TMP DP  RH WIND       PRES   REMARKS
AUGUSTA-BUSH   MOSUNNY   93  70  46 VRB5      29.98F HX  99
AUGUSTA-DANIEL MOSUNNY   91  70  49 VRB3      30.01F HX  96
COLUMBUS       PTSUNNY   93  69  45 CALM      29.99F HX  98
MACON          MOSUNNY   94  72  48 VRB5      29.99F HX 102
ROBINS AFB     MOSUNNY   95  75  52 E6        29.98F HX 107


CITY           SKY/WX    TMP DP  RH WIND       PRES   REMARKS
LAGRANGE*      SUNNY     94  77  57 NW6       30.01F HX 109
SYLVANIA*      SUNNY     92  76  61 CALM      30.00F HX 104
MILLEDGEVILLE* SUNNY     95  68  41 NE5       29.99S HX  99
$$

GAZ099>101-110>166-281800-
SOUTH GEORGIA

CITY           SKY/WX    TMP DP  RH WIND       PRES   REMARKS
SAVANNAH       PTSUNNY   90  73  57 N9        29.98F HX  98
VALDOSTA       MOSUNNY   91  76  61 E7        29.98S HX 103
ALMA           PTSUNNY   89  75  63 VRB5      29.98F HX  99
ST SIMONS      MOSUNNY   86  76  71 E13       29.96F HX  96
FT STEWART     MOSUNNY   90  72  55 NE6       29.96F HX  97
ALBANY         SUNNY     95  71  45 MISG      30.00F HX 102
HUNTER AFB     MOSUNNY   89  77  66 VRB6      29.96F HX 102
MOODY AFB      PTSUNNY   90  75  61 N9        29.97S HX  99
BRUNSWICK      PTSUNNY   88  77  70 E10       29.97F HX 100


CITY           SKY/WX    TMP DP  RH WIND       PRES   REMARKS
BAINBRIDGE*    MOSUNNY   97  73  46 N6        29.98S HX 107
MOULTRIE*      SUNNY     93  68  43 N7        29.99F HX  97
VIDALIA*       PTSUNNY   93  72  49 NE9       29.99F HX 100
WAYCROSS*      MOSUNNY   92  79  66 NE7       29.98S HX 108
DOUGLAS*       PTSUNNY   91  72  52 NE10      30.00S HX  98
$$


USA.gov is the U.S. government's official web portal to all federal, state and local government web resources and services.